Regional Weather Roundup
Issued by NWS Portland, ME

Home | Current Version | Previous Version | Text Only | Print | Product List | Glossary On
Versions: 1 2 3 4 5 6 7 8 9 10 11 12 13 14 15 16 17 18 19 20 21 22 23 24 25 26 27 28 29 30 31 32 33 34 35 36 37 38 39 40 41 42 43 44 45 46 47 48 49 50
000
ASUS41 KGYX 041310
RWRGYX
WEATHER ROUNDUP FOR MAINE AND NEW HAMPSHIRE
NATIONAL WEATHER SERVICE GRAY ME
900 AM EDT WED MAY 04 2016

MEZ002-005-006-010-012-015-018-020-021-024-026-027-029-041400-
MAINE

CITY           SKY/WX    TMP DP  RH WIND       PRES   REMARKS
PORTLAND       PTSUNNY   49  43  80 E6        29.93R
SANFORD        CLOUDY    46  39  76 E7        29.92S
BAR HARBOR     CLOUDY    45  40  82 SE7       29.94R
WISCASSET      CLOUDY    51  42  71 VRB7      29.93S
ROCKLAND       CLOUDY    45  42  89 E8        29.94R
FRYEBURG       CLOUDY    48  44  86 E6        29.91S
LEWISTONAUBURN CLOUDY    48  39  71 NE5       29.92S
AUGUSTA        CLOUDY    47  42  83 CALM      29.94R
WATERVILLE     CLOUDY    47  41  80 VRB3      29.92R
BANGOR         PTSUNNY   51  40  65 NE8       29.94S
GREENVILLE       N/A     42  37  82 CALM      29.90R
MILLINOCKET    CLOUDY    44  39  82 SE5       29.96R
HOULTON        PTSUNNY   44  36  73 NE3       29.94R
PRESQUE ISLE   CLOUDY    46  35  65 E7        29.95S
FRENCHVILLE    CLOUDY    44  35  70 E3        29.93R
CARIBOU        CLOUDY    46  35  65 E6        29.94R
$$

NHZ002-005-008-009-011-012-014-041400-
NEW HAMPSHIRE

CITY           SKY/WX    TMP DP  RH WIND       PRES   REMARKS
PORTSMOUTH     CLOUDY    49  42  78 E7        29.89F
ROCHESTER      CLOUDY    48  41  76 E5        29.90S
NASHUA         CLOUDY    48  42  80 E3        29.90S
MANCHESTER     CLOUDY    48  40  73 E5        29.88F
CONCORD        CLOUDY    48  40  73 E5        29.89F
LACONIA        CLOUDY    46  39  76 E8        29.90S
PLYMOUTH       CLOUDY    48  42  79 SE3       29.89S
BERLIN         CLOUDY    47  39  74 SE8       29.89R
WHITEFIELD     CLOUDY    49  40  71 SE8G18    29.87R
JAFFREY        CLOUDY    44  39  82 VRB3      29.87S
KEENE          CLOUDY    48  41  76 S5        29.88S
LEBANON        CLOUDY    49  43  80 CALM      29.87S
MT WASHINGTON  PTSUNNY   34  28  80 S14         N/A
$$

VTZ005-007-008-041400-
VERMONT

CITY           SKY/WX    TMP DP  RH WIND       PRES   REMARKS
ST JOHNSBURY     N/A     47  39  74 MISG      29.86S
MONTPELIER     CLOUDY    47  40  76 S10       29.89R
BURLINGTON     CLOUDY    50  41  71 S7        29.84R
$$

MAZ007-012-024-CTZ003-RIZ002-NYZ038-NYZ072-041400-
SOUTHERN NEW ENGLAND AND NY

CITY           SKY/WX    TMP DP  RH WIND       PRES   REMARKS
BOSTON         CLOUDY    47  43  86 E12       29.89F
WORCESTER      CLOUDY    44  40  85 E10       29.85F
NANTUCKET      CLOUDY    49  43  80 NE16G24   29.84S
PROVIDENCE     CLOUDY    48  42  80 NE12      29.85F
HARTFORD       CLOUDY    49  42  77 N7        29.84F
ALBANY         LGT RAIN  51  46  83 SE8       29.83R
NEW YORK CITY  CLOUDY    51  47  86 NE14      29.80F
$$

ANZ081-ANZ082-ANZ150-NHZ014-MEZ023>029-041400-
COASTAL MARINE OBSERVATIONS

STATION/POSITION TIME  TEMP    WIND        PRES    WAVE
                       AIR SEA DIR/SP/G            HT/PER
                 (UTC) (F)     (DEG/KT/KT) (MB)    (FT/S)
MOUNT DESERT ROC 1300   41      50/ 17/ 18 1013.9R
MATINICUS ROCK   1300   43      80/ 16/ 17 1012.8F
ISLE OF SHOALS   1300   46      70/  8/  8 1012.6S
CASHES LEDGE BUO 1250   44 45   80/ 14/ 16 1011.7F   3/10
GEORGES BANK BUO 1250   45 45              1009.9F   6/ 9
$$

.............KEY..............
   WCI - WIND CHILL
   TC  - TEMPERATURE IN CELSIUS
   VSB - VISIBILITY IN MILES
   HX  - HEAT INDEX
   FAIR- INDICATES FEW OR NO CLOUDS BELOW 12,000 FT, WITH NO
         SIGNIFICANT WEATHER AND/OR OBSTRUCTIONS TO VISIBILITY.





USA.gov is the U.S. government's official web portal to all federal, state and local government web resources and services.